Theta_e
323 324 323 327 324 321 322 323 323 324 325 326 326 326 326 328 327 327 327 327 327 327 327 326 326 325 324 323 322 321 321 324 328 347 348 348 348 348 345 344 343 344 343 343
323 324 325 324 322 321 323 324 324 324 325 325 326 327 329 329 328 327 327 326 325 323 323 323 323 323 326 324 324 323 321 321 326 341 346 347 349 348 345 345 343 344 343 342
323 323 323 322 321 323 324 324 324 324 324 325 327 328 328 329 328 328 327 327 326 326 326 326 326 325 323 325 325 324 321 320 332 340 346 345 347 347 347 346 343 344 342 340
322 323 322 322 322 324 324 322 324 324 325 326 325 332 330 329 329 328 326 325 325 325 326 326 325 324 325 323 325 325 323 319 327 342 346 347 346 347 347 346 344 342 341 340
321 322 322 322 322 322 323 323 324 325 326 326 326 334 330 328 328 326 325 324 324 324 324 325 325 325 325 325 323 324 323 320 323 339 342 345 346 347 347 346 344 342 341 339
323 322 323 322 321 321 322 323 325 325 326 335 329 325 326 329 327 327 325 324 323 323 323 325 326 327 325 325 324 324 323 321 319 338 342 341 346 346 346 346 344 342 341 339
323 324 322 322 322 322 322 326 331 330 328 326 324 325 333 330 327 326 325 323 322 323 324 325 326 325 326 324 324 324 323 322 320 331 338 341 345 348 345 346 344 343 342 339
321 324 322 323 322 322 322 327 330 331 328 326 325 330 330 328 326 323 322 321 320 320 322 325 324 325 321 323 322 322 324 323 320 332 335 342 347 345 344 345 345 344 342 340
320 321 319 321 321 322 323 327 324 327 328 329 325 326 329 326 325 324 322 321 319 319 321 323 326 323 316 317 320 319 324 324 324 335 328 343 346 345 343 345 345 345 343 340
318 321 320 321 321 323 324 325 328 329 330 329 323 325 331 326 326 324 322 321 319 318 319 321 323 321 321 321 322 322 324 322 331 338 336 340 345 345 344 344 346 344 344 342
318 322 321 321 323 324 326 324 325 326 329 331 329 326 325 327 326 324 322 320 318 318 319 322 325 328 325 322 323 320 323 323 338 339 337 338 344 346 344 344 343 343 344 343
317 316 320 322 323 323 323 324 323 331 330 329 328 329 326 325 325 323 322 319 317 317 318 320 326 327 326 322 320 326 325 331 339 338 330 338 342 345 344 343 345 344 342 343
317 319 322 323 326 324 322 322 322 325 328 329 329 329 325 324 326 323 321 319 317 316 318 319 323 323 322 325 326 323 322 321 334 335 338 340 344 343 342 342 343 341 342 343
319 321 323 329 325 322 322 323 323 324 330 329 330 326 324 325 325 323 320 318 316 316 317 318 324 322 320 320 325 331 330 331 339 340 340 339 342 342 342 342 341 341 342 340
321 322 322 321 321 322 322 323 324 325 325 328 326 325 325 325 324 322 319 317 316 316 316 317 322 321 319 320 321 320 324 337 337 340 336 332 339 341 341 341 342 341 340 339
320 322 322 322 322 321 322 326 325 323 322 323 325 324 322 322 322 323 319 317 315 315 316 317 321 322 318 324 326 329 332 333 338 338 335 329 332 340 340 338 340 340 337 336
321 324 324 325 323 322 327 326 323 323 323 325 326 323 322 323 323 321 318 317 315 314 316 316 319 321 320 322 325 326 329 334 335 333 328 330 334 337 338 337 336 335 334 332
323 323 323 325 324 325 321 323 322 320 323 322 322 322 321 321 320 320 318 316 315 315 316 316 318 320 325 325 324 327 328 331 326 329 329 330 328 332 333 334 334 328 323 321
323 323 325 324 324 323 325 325 322 320 321 321 320 321 319 319 319 321 319 318 315 315 315 315 317 318 321 324 323 322 323 325 323 320 329 332 332 333 330 332 326 323 321 321
321 324 325 325 327 328 325 323 320 319 324 321 320 320 320 319 322 322 320 318 315 313 315 315 315 316 318 320 318 320 322 321 321 318 316 323 328 327 322 321 319 318 319 318
322 322 323 325 325 323 323 321 319 323 323 319 317 319 318 320 320 320 320 318 315 314 316 315 315 314 315 317 317 320 319 319 322 318 312 323 321 323 323 320 316 316 313 311
321 321 322 323 324 327 319 321 322 321 319 317 316 318 318 319 319 319 320 317 314 313 313 313 313 314 313 314 318 319 321 314 317 318 312 315 313 314 316 321 314 313 312 308
322 321 322 321 320 321 319 320 319 318 319 319 319 318 318 318 320 319 319 316 315 311 310 312 312 313 315 315 314 319 318 312 314 310 311 311 310 310 313 315 313 313 306 300
318 318 319 322 319 318 317 317 318 318 318 318 318 318 318 320 320 319 318 316 313 310 309 310 310 311 310 311 311 312 312 309 308 309 309 309 311 310 312 311 306 303 300 299
315 315 316 318 319 317 318 318 319 318 317 317 318 317 318 318 319 319 317 315 312 308 307 308 308 309 308 305 306 306 308 309 310 310 308 309 310 310 307 304 302 301 300 299
313 316 317 319 317 317 317 316 317 317 317 317 318 318 318 318 319 318 317 314 311 309 307 306 306 305 305 303 302 303 304 307 307 306 307 308 307 305 303 302 302 301 300 298
Wind_Speed
12 8 12 15 11 14 15 16 19 20 17 18 18 22 23 23 21 17 14 18 19 20 18 16 15 24 27 26 28 32 32 38 24 35 40 48 38 34 35 32 31 32 30 33
11 15 11 9 10 14 16 19 19 17 16 18 21 24 24 16 9 14 19 16 14 16 19 19 19 20 20 30 32 30 34 38 32 35 38 42 44 34 39 32 34 32 30 32
13 16 8 9 12 16 16 16 16 19 20 20 24 19 15 10 11 21 29 28 24 21 19 20 20 20 26 27 32 33 37 37 32 33 38 36 42 38 36 31 34 33 31 32
11 8 7 11 12 12 13 17 17 20 20 16 19 13 13 10 8 12 20 27 33 35 37 30 29 32 29 30 32 34 34 34 33 31 37 40 45 47 39 38 38 36 32 33
16 19 14 11 10 12 17 15 19 23 22 20 17 8 7 6 11 15 18 25 32 34 33 36 35 36 35 32 33 36 36 34 36 35 41 41 42 49 40 37 36 38 35 35
16 16 15 5 11 17 22 12 19 20 17 10 4 16 9 8 13 17 20 32 36 39 32 34 33 33 33 28 34 38 39 35 43 38 44 45 45 46 43 37 39 37 33 33
21 9 8 2 12 14 17 12 6 5 7 10 23 11 7 9 15 19 23 36 41 40 33 34 27 38 38 40 27 39 43 42 41 42 44 47 49 45 47 41 37 38 35 36
12 9 17 19 13 12 19 4 2 3 8 15 21 4 8 3 22 30 35 37 37 39 41 37 36 42 42 40 38 32 42 44 39 44 43 46 51 46 46 41 39 37 36 33
12 12 25 19 6 13 9 9 7 2 9 7 8 3 11 22 22 29 35 35 39 37 35 37 39 44 38 37 34 35 42 44 40 43 43 44 47 46 47 43 41 35 32 34
11 18 13 14 19 12 1 6 6 3 4 6 10 14 8 24 21 26 27 29 38 38 34 43 43 36 37 36 23 38 35 39 40 40 37 41 47 45 46 40 37 38 35 37
14 10 15 16 15 7 9 3 8 5 4 3 6 8 11 17 21 23 24 30 38 40 38 40 46 52 33 30 29 28 32 37 39 41 33 42 50 50 49 40 37 39 38 40
9 7 11 22 13 10 10 14 11 4 6 4 3 7 16 19 21 25 27 32 40 40 39 39 39 36 21 14 18 21 26 28 33 34 36 36 43 47 43 38 38 40 42 40
7 5 10 12 2 8 18 17 15 11 5 7 3 6 18 18 20 27 26 32 39 39 43 45 38 29 23 23 11 26 23 22 25 31 33 32 34 38 41 39 37 44 43 41
3 5 7 6 16 20 19 20 18 9 4 7 10 18 19 21 20 21 27 28 36 36 36 38 39 21 28 27 18 14 26 32 33 26 24 22 35 43 49 48 44 43 41 40
2 6 14 15 20 23 20 22 14 11 9 3 15 15 18 20 17 19 19 26 31 35 38 39 38 19 11 16 19 29 28 15 19 23 32 34 47 52 46 42 38 41 39 35
6 13 15 16 22 19 20 18 10 8 11 15 13 16 15 24 27 19 18 26 29 33 35 37 32 19 17 14 24 20 14 15 14 26 32 36 44 44 44 36 35 35 33 32
13 7 10 18 21 21 8 10 4 9 11 9 10 16 15 19 17 11 20 23 27 30 32 33 29 22 14 13 22 14 7 14 26 36 34 27 43 34 35 34 29 27 34 36
10 9 8 12 16 8 15 4 10 14 9 10 12 12 17 22 27 9 18 27 30 29 30 29 24 21 15 5 10 9 7 12 25 35 41 38 35 33 37 34 33 38 39 40
7 6 5 5 9 13 4 8 10 15 9 10 11 12 20 28 24 5 23 30 27 25 26 25 18 16 11 8 13 15 6 4 15 29 38 31 28 39 38 39 39 40 41 41
6 8 6 11 7 3 10 12 21 17 3 10 12 15 17 26 14 12 22 23 26 22 22 26 21 15 12 5 9 11 9 9 14 19 27 37 40 40 43 44 44 45 45 44
7 10 12 12 12 6 8 19 18 12 12 23 24 16 18 10 14 21 22 21 21 23 20 19 20 17 14 11 6 11 11 11 12 7 24 34 38 39 41 44 45 49 46 43
12 7 10 8 10 6 27 15 11 8 18 19 16 15 17 20 19 20 19 19 21 21 20 16 19 16 14 13 5 8 7 9 11 18 31 38 39 43 46 46 48 46 43 40
10 6 8 6 9 24 21 19 21 11 14 9 11 13 20 20 13 18 17 17 17 21 19 17 15 16 16 14 10 5 7 9 18 31 38 42 44 45 45 49 47 43 37 35
15 16 11 13 13 21 27 24 15 13 17 18 13 15 24 8 11 17 17 14 14 17 18 17 13 15 10 8 4 7 14 18 29 35 39 42 43 45 45 45 41 38 33 29
15 18 15 17 18 20 14 18 16 14 14 18 11 12 21 15 10 14 17 14 12 13 13 14 11 10 8 1 5 10 17 22 28 32 37 40 43 46 45 42 37 30 25 24
20 15 11 12 16 14 17 20 22 20 18 17 10 13 14 16 10 13 16 12 15 15 13 12 10 7 5 2 10 18 24 29 38 45 45 47 48 46 41 41 38 29 25 23
Wind_Direction
276 263 277 303 1 320 304 290 288 285 299 331 314 306 294 283 282 309 336 323 315 329 315 279 275 252 243 243 243 235 237 239 252 230 214 212 212 207 200 208 206 214 216 207
266 239 260 8 316 299 289 285 289 308 334 318 297 284 274 289 337 322 292 329 345 318 308 304 299 280 273 244 238 240 229 232 246 233 225 219 210 207 202 205 203 211 213 204
309 291 332 308 301 300 297 300 317 319 308 290 285 293 320 330 13 18 3 358 347 338 334 325 311 279 263 262 245 238 234 232 242 231 221 225 218 206 204 204 199 207 210 209
292 264 304 304 304 311 313 320 312 304 300 298 299 298 310 39 25 10 351 344 338 330 324 317 302 295 281 254 248 237 232 229 236 227 218 221 218 207 206 204 198 201 207 205
285 312 309 310 329 327 293 299 300 289 296 288 284 306 292 2 16 2 355 346 335 321 311 310 308 303 287 255 237 233 232 228 230 230 223 221 223 215 202 204 192 204 205 209
257 271 264 328 308 288 301 294 314 311 277 266 343 336 313 48 7 351 345 338 335 327 308 298 297 304 293 287 235 227 226 226 228 226 226 222 222 217 206 198 192 195 196 199
314 24 91 165 308 323 336 2 332 313 341 313 333 325 56 27 354 358 346 341 337 329 311 299 313 310 299 289 279 226 218 218 227 227 229 224 221 216 206 198 194 188 192 195
356 338 8 341 319 318 306 97 141 283 322 312 304 296 15 318 357 350 349 344 342 328 320 321 313 303 288 278 252 277 216 211 220 225 228 223 219 216 204 196 191 187 193 195
315 318 323 302 325 309 331 2 348 153 277 281 284 12 197 6 354 350 342 345 341 328 322 311 302 303 279 257 245 277 211 205 215 216 226 222 218 214 200 196 190 180 181 178
313 307 310 321 304 291 21 299 326 7 309 301 316 310 4 350 353 346 344 345 333 326 326 321 315 311 280 279 275 271 200 201 209 212 221 219 212 208 195 192 183 178 180 178
320 323 310 300 310 327 242 356 315 348 289 305 300 305 18 3 353 347 339 346 334 330 330 325 322 320 290 266 273 221 209 203 203 210 214 216 210 200 191 192 175 181 177 178
351 302 302 304 314 301 36 347 336 332 292 230 252 274 5 359 351 349 335 343 338 333 332 337 337 338 278 202 240 178 199 190 189 215 215 212 213 194 184 185 184 171 175 179
353 330 324 327 117 339 339 325 314 299 302 280 312 282 319 354 351 356 343 342 338 337 340 346 352 359 10 347 298 193 200 211 210 217 217 210 199 185 179 171 169 171 174 174
92 294 304 277 292 295 302 299 293 309 291 317 293 319 335 352 344 353 344 339 338 342 346 352 359 354 320 334 342 189 195 200 208 200 201 199 170 169 159 165 168 169 175 178
241 291 290 309 303 288 284 284 296 296 336 293 314 321 338 344 336 353 339 342 342 347 354 357 7 345 353 357 320 268 263 234 201 172 161 142 169 161 163 164 167 168 175 182
297 296 306 303 296 308 318 25 349 359 330 327 327 330 340 330 336 349 349 348 346 349 352 3 14 7 346 24 343 269 255 203 189 185 161 162 155 160 157 166 168 175 180 178
285 299 309 296 303 308 35 221 10 346 2 5 354 335 312 338 338 359 354 353 347 347 352 2 10 22 41 11 353 8 249 167 159 161 159 152 164 152 158 164 172 184 176 168
256 291 289 306 319 318 353 71 360 3 63 22 350 332 334 329 339 62 17 358 349 348 355 3 10 7 11 19 8 27 36 153 146 155 166 164 171 166 165 162 170 169 163 157
201 277 294 294 321 301 17 14 1 347 358 14 318 300 349 331 336 82 15 359 350 346 354 1 8 10 15 45 34 29 37 169 158 138 152 155 169 174 165 162 162 160 156 150
214 203 244 290 292 269 28 308 350 324 11 318 329 350 348 334 342 345 4 357 345 346 356 355 5 15 19 47 64 57 98 135 155 148 142 161 160 162 158 157 154 152 150 145
309 289 272 260 272 281 7 333 348 352 346 331 323 354 342 322 329 328 350 359 348 350 353 3 358 6 15 30 144 73 84 120 122 156 146 151 153 156 157 154 150 151 146 142
292 295 299 314 312 324 355 349 7 305 316 329 326 356 326 318 325 338 352 358 352 347 357 6 347 6 9 21 72 93 5 89 136 172 151 147 150 152 153 151 149 143 142 141
262 219 289 300 299 315 312 340 335 323 11 358 341 334 322 324 329 340 358 357 358 351 2 7 348 3 0 7 39 138 168 136 149 158 148 147 147 147 146 143 143 141 137 132
306 301 283 284 298 315 313 307 316 346 348 357 346 333 324 349 348 346 353 358 5 3 4 10 6 359 5 356 31 135 154 155 151 143 139 141 142 140 140 137 131 126 125 127
289 298 291 288 287 291 312 341 334 328 335 323 327 333 326 346 3 353 348 356 17 20 5 19 20 355 344 60 136 147 157 161 152 146 141 140 139 135 130 126 121 117 121 127
261 255 263 286 323 311 298 309 318 321 321 312 341 322 324 342 8 3 354 0 357 14 22 32 26 354 14 130 144 149 155 158 149 142 143 138 134 132 131 130 126 121 126 131